Home   Weather   Gjøvik   Past weeks
Flag for Norway

Past Weather in Gjøvik, Norway — Yesterday and Last 2 Weeks

Now
42 °F

Quite cool.


Feels Like: 38 °F
Forecast: 49 / 38 °F
Wind: 6 mph from North

Location: Lillehammer-Saetherengen

Current Time: May 26, 2019 at 9:18:35 am

Latest Report: May 26, 2019 at 8:00 am


Visibility: N/A

Pressure: 29.47 "Hg

Humidity: 86%

Dew Point: 38 °F

Location of GjøvikLocation

Past Weather in Gjøvik — Graph

°F

Gjøvik Temperature Yesterday

Maximum temperature yesterday: 62 °F (at 5:00 pm)
Minimum temperature yesterday: 45 °F (at 6:00 am)
Average temperature yesterday: 54 °F

High & Low Weather Summary for the Past Weeks

 TemperatureHumidityPressure
High74 °F (May 21, 5:00 pm)96% (May 19, 8:00 am)30.59 "Hg (May 19, 8:00 am)
Low32 °F (May 13, 5:00 am)25% (May 13, 4:00 pm)29.44 "Hg (May 26, 4:00 am)
Average53 °F66%30.04 "Hg
* Reported May 11 8:00 am — May 26 8:00 am, Gjøvik. Weather by CustomWeather, © 2019

Note: Actual official high and low records may vary slightly from our data, if they occured in-between our weather recording intervals... More about our weather records

Advertising

Gjøvik Weather History for the Previous 24 Hours

Scroll right to see more
 ConditionsComfort  
Time TempWeatherWind HumidityBarometerVisibility
8:00 am
Sun, May 26
42 °FQuite cool.6 mph86%29.47 "HgN/A
7:00 am42 °FQuite cool.5 mph86%29.47 "HgN/A
6:00 am42 °FQuite cool.5 mph87%29.47 "HgN/A
5:00 am43 °FQuite cool.5 mph83%29.47 "HgN/A
4:00 am45 °FQuite cool.6 mph75%29.44 "HgN/A
3:00 am46 °FCool.5 mph71%29.47 "HgN/A
2:00 am47 °FCool.6 mph71%29.47 "HgN/A
1:00 am48 °FCool.3 mph72%29.50 "HgN/A
12:00 am48 °FCool.3 mph75%29.50 "HgN/A
11:00 pm
Sat, May 25
51 °FCool.5 mph70%29.50 "HgN/A
10:00 pm54 °FCool.1 mph71%29.50 "HgN/A
9:00 pm57 °FCool.2 mph61%29.50 "HgN/A
8:00 pm57 °FCool.2 mph63%29.54 "HgN/A
7:00 pm59 °FRefreshingly cool.3 mph54%29.56 "HgN/A
6:00 pm61 °FRefreshingly cool.3 mph45%29.57 "HgN/A
5:00 pm62 °FRefreshingly cool.2 mph49%29.59 "HgN/A
4:00 pm57 °FCool.2 mph62%29.62 "HgN/A
3:00 pm57 °FCool.2 mph61%29.64 "HgN/A
2:00 pm56 °FRefreshingly cool.1 mph56%29.67 "HgN/A
1:00 pm59 °FRefreshingly cool.3 mph52%29.67 "HgN/A
12:00 pm57 °FRefreshingly cool.1 mph51%29.69 "HgN/A
11:00 am55 °FRefreshingly cool.1 mph54%29.70 "HgN/A
10:00 am54 °FCool.1 mph66%29.71 "HgN/A
9:00 am52 °FCool.1 mph67%29.72 "HgN/A
Weather by CustomWeather, © 2019

See weather overview